Regional Weather Roundup
Issued by NWS Wakefield, VA

Home | Current Version | Previous Version | Text Only | Print | Product List | Glossary On
Versions: 1 2 3 4 5 6 7 8 9 10 11 12 13 14 15 16 17 18 19 20 21 22 23 24 25 26 27 28 29 30 31 32 33 34 35 36 37 38 39 40 41 42 43 44 45 46 47 48 49 50
000
ASUS41 KAKQ 182215
RWRAKQ

REGIONAL WEATHER ROUNDUP
NATIONAL WEATHER SERVICE WAKEFIELD VA
600 PM EDT WED OCT 18 2017

Note: "fair" indicates few or no clouds below 12,000 feet with no
significant weather and/or obstructions to visibility. * = Denotes
station may not report precipitation (e.g., rain,snow,etc.),
thunder or fog.

VAZ042-051-052>054-056-182300-
NORTHERN VIRGINIA

CITY           SKY/WX    TMP DP  RH WIND       PRES   REMARKS
WASH NATIONAL  PTCLDY    67  42  40 S10       30.31S
DULLES         PTCLDY    66  42  41 S6        30.29F
FORT BELVOIR   CLEAR     64  47  55 S3        30.30F
QUANTICO       PTCLDY    68  48  48 S9        30.31F
FREDERICKSBRG* CLEAR     66  46  49 S6        30.30S
STAFFORD*      CLEAR     65  41  41 CALM      30.34F
WARRENTON      CLEAR     68  37  32 S5        30.30S
CULPEPER*      CLEAR     69  37  30 S3        30.31S
MANASSAS*      CLEAR     66  44  45 S5        30.30S
LEESBURG*      CLEAR     68  45  42 S5        30.30S
WINCHESTER     CLEAR     64  39  39 S5        30.28S
FRONT ROYAL*   CLEAR     64  41  42 S3        30.27F
LURAY*         CLEAR     68  37  32 SW6       30.28F
$$

VAZ048-049-060>072-079>083-182300-
CENTRAL AND SOUTH CENTRAL VIRGINIA

CITY           SKY/WX    TMP DP  RH WIND       PRES   REMARKS
RICHMOND       PTCLDY    64  37  36 S5        30.31F
CHESTERFIELD*  NOT AVBL
PETERSBURG*    CLEAR     61  47  59 CALM      30.32S
HANOVER        CLEAR     62  49  62 CALM      30.32F
TAPPAHANNOCK*  CLEAR     67  29  24 S3        30.32F
QUINTON*       FAIR      64  47  52 MISG      30.31F
CHARLOTTSVILLE CLEAR     66  40  38 S6        30.30F
GORDONSVILLE*  CLEAR     65  42  43 CALM      30.30F
ORANGE*        CLEAR     64  41  42 S3        30.31S
LOUISA*        CLEAR     59  46  63 CALM      30.31S
BUMPASS*       FAIR      61  48  61 CALM      30.31S
FARMVILLE*     CLEAR     65  40  41 CALM      30.31S
CREWE*         FAIR      63  43  48 CALM      30.31F
FORT PICKETT*  FAIR      64  39  40 CALM      30.32S
CHASE CITY*    FAIR      64  38  37 CALM      30.32S
CLARKSVILLE*   FAIR      63  39  42 CALM      30.31F
SOUTH HILL*    CLEAR     64  43  46 CALM      30.37S
LAWRENCEVILLE* FAIR      63  41  44 CALM      30.31S
EMPORIA*       CLEAR     64  43  45 CALM      30.33S
$$

VAZ088>098-182300-
SOUTHEAST VIRGINIA

CITY           SKY/WX    TMP DP  RH WIND       PRES   REMARKS
NORFOLK        CLEAR     64  46  52 E6        30.32S
VIRGINIA BEACH PTCLDY    62  46  55 E3        30.31F
NORFOLK NAVAL  PTCLDY    63  45  51 E5        30.33F
WEST POINT*    CLEAR     62  41  44 E3        30.33F
SALUDA*        FAIR      62  42  47 S5        30.32F
NEWPORT NEWS   CLEAR     61  49  64 E5        30.32F
LANGLEY AFB    CLEAR     62  46  56 E6        30.32F
FORT EUSTIS    CLEAR     70  48  45 E3        30.29F
WILLIAMSBURG*  CLEAR     64  50  59 CALM      30.33S
HR EXEC AP*    NOT AVBL
FRANKLIN*      CLEAR     66  46  46 SE3       30.32S
US460-WAKEFLD  CLEAR     64  51  62 CALM      30.31F
$$

VAZ020-022-025-037-045-182300-
WEST CENTRAL AND SOUTHWEST VIRGINIA

CITY           SKY/WX    TMP DP  RH WIND       PRES   REMARKS
STAUNTON*      CLEAR     65  40  39 S6        30.31F
WAYNESBORO*    CLEAR     62  41  46 SE9       30.31S
HOT SPRINGS VA CLEAR     54  34  47 CALM      30.35F
LYNCHBURG      CLEAR     64  38  38 SE5       30.32S
DANVILLE       CLEAR     66  40  38 CALM      30.32S
SOUTH BOSTON*  FAIR      66  34  30 CALM      30.32S
MARTINSVILLE   CLEAR     61  42  49 CALM      30.35R
ROANOKE        CLEAR     64  39  39 SE8       30.33S
BLACKSBURG     CLEAR     62  42  48 E7        30.34F
DUBLIN*        CLOUDY    65  41  41 E6        30.32S
MARION*        CLEAR     64  39  39 E8        30.33S
HILLSVILLE*    CLEAR     58  33  38 CALM      30.33S
RICHLANDS*     FAIR      66   7  10 CALM      30.30S
WISE*          PTCLDY    63  41  45 S5        30.31R
ABINGDON*      CLEAR     67  43  40 CALM      30.28S
$$

MDZ021>025-VAZ099-100-182300-
SOUTHERN MARYLAND AND THE DELMARVA PENINSULA

CITY           SKY/WX    TMP DP  RH WIND       PRES   REMARKS
PATUXENT RIVER PTCLDY    63  50  62 SE6       30.31F
BAY BRIDGE APT CLEAR     66  46  48 S6        30.30S
LEONARDTOWN    NOT AVBL
DOVER          CLEAR     67  45  45 SW7       30.28S
GEORGETOWN     CLEAR     66  46  48 SW5       30.30F
EASTON         CLEAR     64  41  42 SW7       30.34F
CAMBRIDGE      CLEAR     64  43  45 S3        30.31F
SALISBURY      CLEAR     62  48  60 W7        30.31S
OCEAN CITY     CLEAR     61  46  57 SW6       30.32S
WALLOPS ISLAND CLEAR     60  40  47 SW5       30.33S
ACCOMACK*      CLEAR     61  52  72 CALM      30.33S
$$

NCZ012>017-030>032-182300-
NORTH CENTRAL AND EASTERN NORTH CAROLINA

CITY           SKY/WX    TMP DP  RH WIND       PRES   REMARKS
ROANOKE RAPIDS FAIR      64  50  59 CALM      30.31F
RALEIGH        PTCLDY    65  39  38 E6        30.32S
ELIZABETH CITY CLEAR     64  54  69 E8        30.32S
AHOSKIE*       CLEAR     64  49  59 CALM      30.32S
EDENTON*       CLEAR     67  56  70 CALM      30.32S
CURRITUCK*     CLEAR     64  53  68 NE3       30.33S
KILL DEVIL HLS CLEAR     64  53  67 CALM      30.30S
MANTEO         CLEAR    N/A N/A N/A NE9       30.31F
CAPE HATTERAS  CLEAR     68  59  73 NE8G18    30.28S
TARBORO*       NOT AVBL
GOLDSBORO      CLEAR     68  48  49 NE6       30.28S
WASHINGTON     CLEAR     68  55  64 NE6       30.30S
GREENVILLE     CLEAR     68  54  60 E6        30.30F
NEW BERN       CLEAR     69  56  62 E6        30.30R
WILMINGTON     CLEAR     71  54  54 NE8       30.27R
$$

VAZ048-182300-
ELSEWHERE

CITY           SKY/WX    TMP DP  RH WIND       PRES   REMARKS
HARRISBURG PA  CLEAR     64  50  60 VRB5      30.26S
BALTIMORE      PTCLDY    67  44  43 S3        30.29S
ANNAPOLIS      CLEAR     66  51  58 S9        30.29F
ANDREWS AFB    CLEAR     64  41  43 S8        30.29F
PHILADELPHIA   CLEAR     69  46  43 SW7       30.28S
HENDERSON NC   CLEAR     63  33  33 CALM      30.32S
GREENSBORO     PTCLDY    66  38  35 NE3       30.31S
ROCKY MOUNT    CLEAR     64  53  67 CALM      30.31S
$$

VAZ100-182300-
MARINE

STATION/POSITION TIME  TEMP    WIND        PRES    WAVE   SWELL
                       AIR SEA DIR/SP/G            HT/PER HT/PER
                 (UTC) (F)     (DEG/KT/KT) (MB)    (FT/S) (FT/S)
BRANDYWINE LGT   2136   66     170/ 11/ 11 1026.2F
CAPE MAY NJ      2136   64 66  160/  4/  5 1025.6F
LEWES DE         2136   67 65  150/  5/  6 1025.8F
15NM E FENWICK I 2150   64 68  190/ 10/ 14 1026.8F   2/10   2/10
OCEAN-CITY-INLET 2136   64 65  220/ 10/ 11 1026.9F
WACHAPREAGUE VA  2136   64 65  220/  4/  6 1027.0F
THOMAS POINT MD  2200   66 68  180/ 14/ 15   N/A
GOOSES REEF MD   2200   67 69  230/  6/  8 1026.2
COVE POINT MD    2136   64     190/ 10/ 12 1027.1F
SOLOMONS ISLAND  2136   65 70  130/  6/  8 1026.0F
BISHOPS HEAD MD  2136   63 64  170/  7/  8 1027.0F
PINEY POINT MD   2136          160/  8/  9   N/A
POTOMAC MD       2200   65 69  170/  8/ 10 1026.0    1
CAMBRIDGE MD     2136   66 67              1027.2F
LEWISETTA VA     2136   65 66  140/  7/  8 1026.3F
RAPPAHANNOCK LGT 2136          220/  2/  3 1027.6F
STINGRAY PT      2200   65 68  210/  6/  8 1027.1    0
YORK RVR RNG VA  2136   63     130/  5/  6 1027.4F
YORKTOWN VA      2136   63 71   90/  6/  7 1026.5F
JAMESTOWN VA     2200      71  110/  4/  4   N/A     0
DOMINION TERM VA 2136   64      70/  7/  9 1027.0F
KIPTOPEKE VA     2136      68  120/  2/  4   N/A
CAPE HENRY VA    2136   64      80/  5/  6   N/A
WILLOUBY STN VA  2136   64      80/  6/  8 1026.8F
S CRANEY ISL VA  2136   65      50/  9/ 11 1026.5R
CAPE HENRY BUOY  2200      70                N/A     3/10   2/11
1ST LANDING BUOY 2200   63 69              1026.7    2/ 4
CAPE CHARLES BUO 2151      70                N/A     3/ 9
64NM E OF VA BCH 2150   65 68   50/  8/ 10 1027.0F   4/10   3/10
DUCK PIER NC     2136   65 68   40/ 10/ 12 1026.1F
44100 DUCK FRF   2135      71                N/A     4/10   2/11
44056 DUCK FRF   2200      70                N/A     4/ 8   2/11
OREGON INLET NC  2136   66 65   30/ 11/ 13 1026.0F
HATTERAS NC      2136   67 68   40/ 10/ 15 1025.2S
DIAMOND SHLS NC  2150   72 82   30/ 17/ 21 1024.1R   6/10   3/10
CAPE LOOKOUT NC  2200   66      20/ 16/ 19 1024.8R
$$



USA.gov is the U.S. government's official web portal to all federal, state and local government web resources and services.